When you browse on this site, cookies collect data to enhance your experience and personalize the content and advertising you see.
Visit our Privacy Policy to learn more. By continuing to use the site, you agree to this use of cookies and data.
  • In Sweden
  • List of Countries
  • For 7 days
  • Water Temperature
  • Satellite Maps
  • Weather Map
  • Weather Widgets
  • user-avatar
    Login

    Hourly Weather Maraksa 1-ya

    Today, 21 November, Wednesday

    Time Temperature Precipitation Wind Pressure Humidity
    00:00 -9°C° 0.1 mm 4 mps 754 mmHg 92%
    01:00 -9°C° 0 mm 4 mps 754 mmHg 92%
    02:00 -9°C° 0 mm 4 mps 754 mmHg 92%
    03:00 -9°C° 0 mm 4 mps 753 mmHg 92%
    04:00 -9°C° 0.1 mm 4 mps 753 mmHg 92%
    05:00 -9°C° 0.1 mm 4 mps 753 mmHg 92%
    06:00 -9°C° 0.1 mm 4 mps 752 mmHg 91%
    07:00 -9°C° 0 mm 4 mps 752 mmHg 91%
    08:00 -9°C° 0 mm 4 mps 752 mmHg 91%
    09:00 -9°C° 0 mm 4 mps 752 mmHg 90%
    10:00 -8°C° 0 mm 4 mps 752 mmHg 89%
    11:00 -8°C° 0 mm 4 mps 752 mmHg 87%
    12:00 -7°C° 0 mm 5 mps 752 mmHg 85%
    13:00 -7°C° 0 mm 4 mps 751 mmHg 85%
    14:00 -7°C° 0 mm 4 mps 751 mmHg 86%
    15:00 -7°C° 0 mm 4 mps 751 mmHg 86%
    16:00 -7°C° 0 mm 4 mps 751 mmHg 87%
    17:00 -7°C° 0 mm 4 mps 751 mmHg 88%
    18:00 -7°C° 0 mm 4 mps 751 mmHg 89%
    19:00 -7°C° 0 mm 4 mps 751 mmHg 89%
    20:00 -7°C° 0 mm 4 mps 750 mmHg 89%
    21:00 -8°C° 0 mm 4 mps 750 mmHg 90%
    22:00 -8°C° 0 mm 4 mps 750 mmHg 90%
    23:00 -8°C° 0 mm 4 mps 749 mmHg 90%

    Tomorrow, 22 November, Thursday

    Time Temperature Precipitation Wind Pressure Humidity
    00:00 -8°C° 0 mm 4 mps 749 mmHg 90%
    01:00 -8°C° 0 mm 4 mps 749 mmHg 90%
    02:00 -8°C° 0 mm 4 mps 748 mmHg 90%
    03:00 -8°C° 0 mm 4 mps 748 mmHg 91%
    04:00 -8°C° 0.1 mm 4 mps 748 mmHg 91%
    05:00 -7°C° 0.1 mm 4 mps 748 mmHg 91%
    06:00 -7°C° 0.1 mm 4 mps 747 mmHg 90%
    07:00 -7°C° 0.1 mm 4 mps 747 mmHg 90%
    08:00 -7°C° 0.1 mm 4 mps 747 mmHg 90%
    09:00 -7°C° 0.1 mm 4 mps 746 mmHg 90%
    10:00 -7°C° 0.1 mm 4 mps 746 mmHg 89%
    11:00 -5°C° 0.1 mm 4 mps 746 mmHg 88%
    12:00 -4°C° 0.1 mm 4 mps 746 mmHg 86%
    13:00 -4°C° 0.1 mm 4 mps 746 mmHg 86%
    14:00 -4°C° 0.1 mm 4 mps 746 mmHg 86%
    15:00 -5°C° 0.1 mm 4 mps 746 mmHg 85%
    16:00 -5°C° 0 mm 4 mps 746 mmHg 87%
    17:00 -5°C° 0 mm 4 mps 746 mmHg 88%
    18:00 -5°C° 0 mm 4 mps 746 mmHg 89%
    19:00 -7°C° 0.1 mm 4 mps 746 mmHg 90%
    20:00 -7°C° 0.1 mm 4 mps 745 mmHg 90%
    21:00 -7°C° 0.1 mm 4 mps 745 mmHg 91%
    22:00 -5°C° 0.2 mm 4 mps 745 mmHg 90%
    23:00 -5°C° 0.2 mm 4 mps 744 mmHg 90%

    Day after tomorrow, 23 November, Friday

    Time Temperature Precipitation Wind Pressure Humidity
    00:00 -5°C° 0.2 mm 4 mps 744 mmHg 90%
    01:00 -4°C° 0.1 mm 4 mps 744 mmHg 90%
    02:00 -4°C° 0.1 mm 4 mps 743 mmHg 90%
    03:00 -4°C° 0.1 mm 4 mps 743 mmHg 90%
    04:00 -4°C° 0.1 mm 4 mps 743 mmHg 90%
    05:00 -3°C° 0.1 mm 4 mps 742 mmHg 90%
    06:00 -3°C° 0.1 mm 4 mps 742 mmHg 89%
    07:00 -3°C° 0.1 mm 4 mps 742 mmHg 90%
    08:00 -3°C° 0.1 mm 4 mps 742 mmHg 90%
    09:00 -3°C° 0.1 mm 4 mps 742 mmHg 91%
    10:00 -5°C° 0.3 mm 5 mps 743 mmHg 88%
    11:00 -6°C° 0.3 mm 5 mps 743 mmHg 86%
    12:00 -6°C° 0.3 mm 5 mps 744 mmHg 83%
    13:00 -7°C° 0 mm 5 mps 745 mmHg 82%
    14:00 -7°C° 0 mm 5 mps 746 mmHg 81%
    15:00 -8°C° 0 mm 5 mps 747 mmHg 80%
    16:00 -10°C° 0 mm 4 mps 748 mmHg 82%
    17:00 -14°C° 0 mm 4 mps 749 mmHg 83%
    18:00 -16°C° 0 mm 4 mps 750 mmHg 85%
    19:00 -16°C° 0 mm 3 mps 751 mmHg 87%
    20:00 -18°C° 0 mm 3 mps 752 mmHg 90%
    21:00 -18°C° 0 mm 2 mps 752 mmHg 92%
    22:00 -18°C° 0 mm 2 mps 752 mmHg 92%
    23:00 -19°C° 0 mm 2 mps 753 mmHg 92%

    24 November, Saturday

    Time Temperature Precipitation Wind Pressure Humidity
    00:00 -19°C° 0 mm 2 mps 753 mmHg 92%
    01:00 -20°C° 0 mm 2 mps 753 mmHg 93%
    02:00 -20°C° 0 mm 2 mps 753 mmHg 93%
    03:00 -20°C° 0 mm 2 mps 753 mmHg 93%
    04:00 -20°C° 0 mm 2 mps 753 mmHg 94%
    05:00 -21°C° 0 mm 2 mps 753 mmHg 95%
    06:00 -21°C° 0 mm 2 mps 753 mmHg 95%
    07:00 -21°C° 0 mm 2 mps 752 mmHg 96%
    08:00 -19°C° 0 mm 1 mps 752 mmHg 96%
    09:00 -19°C° 0 mm 1 mps 751 mmHg 97%
    10:00 -18°C° 0 mm 1 mps 751 mmHg 96%
    11:00 -17°C° 0 mm 1 mps 750 mmHg 94%
    12:00 -15°C° 0 mm 1 mps 749 mmHg 93%
    13:00 -17°C° 0 mm 2 mps 748 mmHg 93%
    14:00 -17°C° 0 mm 2 mps 747 mmHg 93%
    15:00 -17°C° 0 mm 3 mps 746 mmHg 93%
    16:00 -17°C° 0.1 mm 3 mps 745 mmHg 93%
    17:00 -17°C° 0.1 mm 3 mps 744 mmHg 93%
    18:00 -17°C° 0.1 mm 4 mps 743 mmHg 93%
    19:00 -17°C° 0.1 mm 4 mps 742 mmHg 93%
    20:00 -16°C° 0.1 mm 4 mps 741 mmHg 93%
    21:00 -16°C° 0.1 mm 4 mps 740 mmHg 92%
    22:00 -17°C° 0.1 mm 5 mps 739 mmHg 92%
    23:00 -17°C° 0.1 mm 5 mps 739 mmHg 92%

    25 November, Sunday

    Time Temperature Precipitation Wind Pressure Humidity
    00:00 -17°C° 0.1 mm 5 mps 738 mmHg 91%
    01:00 -17°C° 0.1 mm 5 mps 739 mmHg 91%
    02:00 -17°C° 0.1 mm 5 mps 739 mmHg 90%
    03:00 -18°C° 0.1 mm 6 mps 740 mmHg 90%
    04:00 -18°C° 0 mm 6 mps 741 mmHg 89%
    05:00 -20°C° 0 mm 6 mps 742 mmHg 88%
    06:00 -20°C° 0 mm 6 mps 743 mmHg 87%
    07:00 -21°C° 0 mm 6 mps 745 mmHg 86%
    08:00 -21°C° 0 mm 5 mps 746 mmHg 85%
    09:00 -21°C° 0 mm 5 mps 748 mmHg 83%
    10:00 -21°C° 0 mm 5 mps 750 mmHg 83%
    11:00 -20°C° 0 mm 4 mps 751 mmHg 83%
    12:00 -20°C° 0 mm 4 mps 752 mmHg 83%
    13:00 -20°C° 0 mm 4 mps 753 mmHg 84%
    14:00 -19°C° 0 mm 3 mps 754 mmHg 85%
    15:00 -19°C° 0 mm 3 mps 755 mmHg 87%
    16:00 -21°C° 0 mm 3 mps 756 mmHg 89%
    17:00 -21°C° 0 mm 3 mps 756 mmHg 90%
    18:00 -22°C° 0 mm 3 mps 757 mmHg 92%
    19:00 -22°C° 0 mm 3 mps 757 mmHg 93%
    20:00 -22°C° 0 mm 3 mps 757 mmHg 94%
    21:00 -22°C° 0 mm 3 mps 757 mmHg 94%
    22:00 -22°C° 0 mm 3 mps 757 mmHg 94%
    23:00 -22°C° 0 mm 3 mps 757 mmHg 95%

    26 November, Monday

    Time Temperature Precipitation Wind Pressure Humidity
    00:00 -22°C° 0 mm 3 mps 757 mmHg 95%
    01:00 -22°C° 0 mm 3 mps 756 mmHg 95%
    02:00 -23°C° 0 mm 3 mps 756 mmHg 96%
    03:00 -23°C° 0 mm 3 mps 756 mmHg 97%
    04:00 -23°C° 0 mm 3 mps 755 mmHg 97%
    05:00 -23°C° 0 mm 3 mps 754 mmHg 97%
    06:00 -22°C° 0 mm 3 mps 753 mmHg 97%
    07:00 -22°C° 0.1 mm 3 mps 753 mmHg 96%
    08:00 -21°C° 0.1 mm 3 mps 752 mmHg 96%
    09:00 -19°C° 0.1 mm 3 mps 751 mmHg 95%
    10:00 -18°C° 0.1 mm 3 mps 751 mmHg 95%
    11:00 -16°C° 0.1 mm 2 mps 750 mmHg 94%
    12:00 -15°C° 0.1 mm 2 mps 750 mmHg 93%
    13:00 -15°C° 0.1 mm 2 mps 750 mmHg 94%
    14:00 -13°C° 0.1 mm 1 mps 750 mmHg 95%
    15:00 -12°C° 0.1 mm 1 mps 750 mmHg 96%
    16:00 -13°C° 0 mm 1 mps 751 mmHg 96%
    17:00 -14°C° 0 mm 0 mps 751 mmHg 97%
    18:00 -14°C° 0 mm 0 mps 751 mmHg 98%
    19:00 -14°C° 0 mm 1 mps 752 mmHg 97%
    20:00 -14°C° 0 mm 1 mps 753 mmHg 97%
    21:00 -14°C° 0 mm 1 mps 753 mmHg 97%
    22:00 -16°C° 0 mm 2 mps 754 mmHg 97%
    23:00 -17°C° 0 mm 2 mps 754 mmHg 97%
    Show more